When you browse on this site, cookies collect data to enhance your experience and personalize the content and advertising you see.
Visit our Privacy Policy to learn more. By continuing to use the site, you agree to this use of cookies and data.
  • In France
  • List of Countries
  • For 7 days
  • Water Temperature
  • Satellite Maps
  • Weather Map
  • Weather Widgets
  • user-avatar
    Login

    Hourly Weather Fier

    Today, 22 January, Tuesday

    Time Temperature Precipitation Wind Pressure Humidity
    00:00 +8°C° 0 mm 4 mps 759 mmHg 72%
    01:00 +8°C° 0 mm 4 mps 758 mmHg 72%
    02:00 +8°C° 0.2 mm 4 mps 758 mmHg 73%
    03:00 +8°C° 0.2 mm 4 mps 757 mmHg 74%
    04:00 +8°C° 0.2 mm 4 mps 757 mmHg 74%
    05:00 +8°C° 0.7 mm 4 mps 757 mmHg 76%
    06:00 +8°C° 0.7 mm 4 mps 756 mmHg 77%
    07:00 +8°C° 0.7 mm 5 mps 756 mmHg 78%
    08:00 +9°C° 0.2 mm 5 mps 756 mmHg 75%
    09:00 +9°C° 0.2 mm 5 mps 756 mmHg 71%
    10:00 +10°C° 0.2 mm 6 mps 756 mmHg 68%
    11:00 +11°C° 0.4 mm 6 mps 755 mmHg 68%
    12:00 +11°C° 0.4 mm 6 mps 754 mmHg 69%
    13:00 +13°C° 0.4 mm 6 mps 753 mmHg 69%
    14:00 +11°C° 0.4 mm 6 mps 753 mmHg 72%
    15:00 +12°C° 0.4 mm 5 mps 753 mmHg 75%
    16:00 +10°C° 0.4 mm 5 mps 752 mmHg 77%
    17:00 +10°C° 1 mm 5 mps 752 mmHg 79%
    18:00 +10°C° 1 mm 4 mps 752 mmHg 82%
    19:00 +10°C° 1 mm 4 mps 752 mmHg 84%
    20:00 +10°C° 0.6 mm 4 mps 752 mmHg 83%
    21:00 +10°C° 0.6 mm 4 mps 752 mmHg 83%
    22:00 +10°C° 0.6 mm 4 mps 753 mmHg 82%
    23:00 +8°C° 0.2 mm 4 mps 753 mmHg 82%

    Tomorrow, 23 January, Wednesday

    Time Temperature Precipitation Wind Pressure Humidity
    00:00 +8°C° 0.2 mm 4 mps 753 mmHg 82%
    01:00 +7°C° 0.2 mm 4 mps 753 mmHg 82%
    02:00 +7°C° 0.9 mm 4 mps 753 mmHg 84%
    03:00 +7°C° 0.9 mm 4 mps 752 mmHg 85%
    04:00 +7°C° 0.9 mm 4 mps 752 mmHg 86%
    05:00 +7°C° 0.6 mm 4 mps 752 mmHg 85%
    06:00 +7°C° 0.6 mm 4 mps 752 mmHg 84%
    07:00 +6°C° 0.6 mm 4 mps 752 mmHg 83%
    08:00 +8°C° 0.5 mm 4 mps 752 mmHg 78%
    09:00 +9°C° 0.5 mm 5 mps 752 mmHg 72%
    10:00 +10°C° 0.5 mm 5 mps 752 mmHg 67%
    11:00 +12°C° 0.3 mm 5 mps 751 mmHg 64%
    12:00 +12°C° 0.3 mm 5 mps 750 mmHg 61%
    13:00 +13°C° 0.3 mm 5 mps 750 mmHg 58%
    14:00 +12°C° 0.2 mm 4 mps 749 mmHg 62%
    15:00 +12°C° 0.2 mm 3 mps 749 mmHg 66%
    16:00 +12°C° 0.2 mm 2 mps 748 mmHg 70%
    17:00 +10°C° 0.1 mm 2 mps 748 mmHg 73%
    18:00 +10°C° 0.1 mm 1 mps 748 mmHg 76%
    19:00 +10°C° 0.1 mm 1 mps 748 mmHg 79%
    20:00 +9°C° 0 mm 1 mps 748 mmHg 79%
    21:00 +9°C° 0 mm 1 mps 748 mmHg 80%
    22:00 +9°C° 0 mm 1 mps 748 mmHg 80%
    23:00 +9°C° 0 mm 1 mps 747 mmHg 80%

    Day after tomorrow, 24 January, Thursday

    Time Temperature Precipitation Wind Pressure Humidity
    00:00 +9°C° 0 mm 1 mps 747 mmHg 79%
    01:00 +9°C° 0 mm 1 mps 746 mmHg 78%
    02:00 +8°C° 0 mm 1 mps 746 mmHg 78%
    03:00 +8°C° 0 mm 1 mps 745 mmHg 78%
    04:00 +8°C° 0 mm 1 mps 744 mmHg 79%
    05:00 +8°C° 0 mm 1 mps 744 mmHg 79%
    06:00 +8°C° 0 mm 1 mps 744 mmHg 79%
    07:00 +7°C° 0 mm 0 mps 744 mmHg 79%
    08:00 +9°C° 0.1 mm 1 mps 744 mmHg 75%
    09:00 +10°C° 0.1 mm 1 mps 744 mmHg 72%
    10:00 +11°C° 0.1 mm 1 mps 744 mmHg 69%
    11:00 +11°C° 0.4 mm 1 mps 744 mmHg 71%
    12:00 +10°C° 0.4 mm 1 mps 744 mmHg 73%
    13:00 +10°C° 0.4 mm 1 mps 744 mmHg 76%
    14:00 +11°C° 0 mm 1 mps 744 mmHg 75%
    15:00 +10°C° 0 mm 2 mps 744 mmHg 75%
    16:00 +10°C° 0 mm 2 mps 744 mmHg 75%
    17:00 +9°C° 0 mm 2 mps 744 mmHg 77%
    18:00 +8°C° 0 mm 2 mps 744 mmHg 78%
    19:00 +7°C° 0 mm 2 mps 745 mmHg 80%
    20:00 +7°C° 0 mm 3 mps 745 mmHg 79%
    21:00 +7°C° 0 mm 3 mps 744 mmHg 79%
    22:00 +7°C° 0 mm 3 mps 744 mmHg 78%
    23:00 +7°C° 0.3 mm 3 mps 745 mmHg 77%

    25 January, Friday

    Time Temperature Precipitation Wind Pressure Humidity
    00:00 +7°C° 0.3 mm 3 mps 745 mmHg 76%
    01:00 +8°C° 0.3 mm 3 mps 745 mmHg 74%
    02:00 +7°C° 0 mm 3 mps 745 mmHg 75%
    03:00 +7°C° 0 mm 3 mps 744 mmHg 75%
    04:00 +7°C° 0 mm 3 mps 744 mmHg 76%
    05:00 +6°C° 0 mm 4 mps 744 mmHg 75%
    06:00 +6°C° 0 mm 4 mps 744 mmHg 74%
    07:00 +6°C° 0 mm 4 mps 743 mmHg 73%
    08:00 +6°C° 0.2 mm 4 mps 743 mmHg 73%
    09:00 +8°C° 0.2 mm 3 mps 744 mmHg 73%
    10:00 +9°C° 0.2 mm 2 mps 744 mmHg 72%
    11:00 +10°C° 0.1 mm 2 mps 743 mmHg 69%
    12:00 +10°C° 0.1 mm 2 mps 743 mmHg 65%
    13:00 +12°C° 0.1 mm 2 mps 743 mmHg 61%
    14:00 +12°C° 0 mm 2 mps 743 mmHg 64%
    15:00 +10°C° 0 mm 3 mps 744 mmHg 67%
    16:00 +10°C° 0 mm 3 mps 744 mmHg 70%
    17:00 +9°C° 0 mm 3 mps 744 mmHg 73%
    18:00 +9°C° 0 mm 3 mps 745 mmHg 75%
    19:00 +8°C° 0 mm 3 mps 745 mmHg 77%
    20:00 +8°C° 0 mm 3 mps 746 mmHg 77%
    21:00 +7°C° 0 mm 3 mps 746 mmHg 77%
    22:00 +7°C° 0 mm 3 mps 746 mmHg 77%
    23:00 +7°C° 0 mm 3 mps 746 mmHg 77%

    26 January, Saturday

    Time Temperature Precipitation Wind Pressure Humidity
    00:00 +6°C° 0 mm 4 mps 746 mmHg 77%
    01:00 +5°C° 0 mm 4 mps 746 mmHg 76%
    02:00 +5°C° 0 mm 4 mps 747 mmHg 76%
    03:00 +4°C° 0 mm 3 mps 747 mmHg 76%
    04:00 +4°C° 0 mm 3 mps 747 mmHg 75%
    05:00 +4°C° 0 mm 3 mps 747 mmHg 74%
    06:00 +3°C° 0 mm 3 mps 748 mmHg 73%
    07:00 +3°C° 0 mm 3 mps 748 mmHg 72%
    08:00 +4°C° 0 mm 3 mps 748 mmHg 67%
    09:00 +7°C° 0 mm 3 mps 749 mmHg 61%
    10:00 +8°C° 0 mm 3 mps 749 mmHg 56%
    11:00 +9°C° 0 mm 3 mps 749 mmHg 54%
    12:00 +10°C° 0 mm 3 mps 749 mmHg 52%
    13:00 +11°C° 0 mm 4 mps 749 mmHg 50%
    14:00 +10°C° 0 mm 4 mps 749 mmHg 53%
    15:00 +10°C° 0 mm 4 mps 750 mmHg 56%
    16:00 +10°C° 0 mm 4 mps 750 mmHg 59%
    17:00 +8°C° 0 mm 4 mps 750 mmHg 62%
    18:00 +8°C° 0 mm 3 mps 751 mmHg 66%
    19:00 +7°C° 0 mm 3 mps 751 mmHg 70%
    20:00 +6°C° 0 mm 2 mps 752 mmHg 70%
    21:00 +6°C° 0 mm 2 mps 752 mmHg 71%
    22:00 +6°C° 0 mm 2 mps 752 mmHg 72%
    23:00 +6°C° 0 mm 1 mps 752 mmHg 73%

    27 January, Sunday

    Time Temperature Precipitation Wind Pressure Humidity
    00:00 +6°C° 0 mm 1 mps 752 mmHg 73%
    01:00 +6°C° 0 mm 1 mps 752 mmHg 74%
    02:00 +6°C° 0 mm 1 mps 752 mmHg 75%
    03:00 +6°C° 0 mm 1 mps 752 mmHg 75%
    04:00 +5°C° 0 mm 2 mps 752 mmHg 75%
    05:00 +5°C° 0 mm 2 mps 752 mmHg 75%
    06:00 +5°C° 0 mm 2 mps 752 mmHg 75%
    07:00 +5°C° 0 mm 2 mps 753 mmHg 74%
    08:00 +6°C° 0 mm 2 mps 753 mmHg 73%
    09:00 +7°C° 0 mm 3 mps 753 mmHg 71%
    10:00 +9°C° 0 mm 3 mps 753 mmHg 70%
    11:00 +9°C° 0 mm 3 mps 753 mmHg 67%
    12:00 +10°C° 0 mm 4 mps 752 mmHg 64%
    13:00 +11°C° 0 mm 4 mps 752 mmHg 60%
    14:00 +10°C° 0 mm 4 mps 752 mmHg 62%
    15:00 +9°C° 0 mm 5 mps 752 mmHg 64%
    16:00 +9°C° 0 mm 5 mps 752 mmHg 66%
    17:00 +8°C° 0 mm 5 mps 752 mmHg 69%
    18:00 +7°C° 0 mm 5 mps 752 mmHg 72%
    19:00 +6°C° 0 mm 5 mps 752 mmHg 75%
    20:00 +6°C° 0 mm 5 mps 752 mmHg 75%
    21:00 +5°C° 0 mm 6 mps 752 mmHg 76%
    22:00 +5°C° 0 mm 6 mps 752 mmHg 76%
    23:00 +5°C° 0.5 mm 6 mps 751 mmHg 76%
    Show more